Hourly Data Report for October 05, 2017

All times are specified in Local Standard Time (LST). Add 1 hour to adjust for Daylight Saving Time where and when it is observed.

RESOLUTE BAY A
NUNAVUT

74°43'01.000" N
94°58'10.000" W
67.70 m
2403498
71924
YRB

Download Data

Hourly Data (October 2017)
Hourly Data Report for October 5, 2017
Temp Definition
°C
Dew Point Temp Definition
°C
Rel Hum Definition
%
Wind Dir Definition
10's deg

Wind Spd Definition
km/h
Visibility Definition
km
Stn Press Definition
kPa
Hmdx Definition


Wind Chill Definition


Weather Definition


TIME
00:00 Legend Double Dagger -7.5 -9.6 85 2 63 4.8 99.29   -19 Blowing Snow
01:00 Legend Double Dagger -7.6 -9.7 85 2 67 4.8 99.28   -20 Blowing Snow
02:00 Legend Double Dagger -7.3 -9.6 84 3 63 4.8 99.30   -19 Blowing Snow
03:00 Legend Double Dagger -7.3 -9.6 83 3 64 4.8 99.31   -19 Blowing Snow
04:00 Legend Double Dagger -7.1 -9.5 83 3 66 4.8 99.31   -19 Blowing Snow
05:00 Legend Double Dagger -6.9 -9.2 84 3 58 4.8 99.34   -18 Blowing Snow
06:00 Legend Double Dagger -6.3 -8.9 82 2 46 6.4 99.45   -16 Blowing Snow
07:00 Legend Double Dagger -5.4 -8.3 80 3 40 12.9 99.52   -15 Blowing Snow
08:00 Legend Double Dagger -5.4 -7.9 82 3 39 14.5 99.59   -15 Blowing Snow
09:00 Legend Double Dagger -5.0 -7.3 84 4 41 14.5 99.61   -14 Snow,Blowing Snow
10:00 Legend Double Dagger -5.0 -6.8 87 4 41 8.1 99.63   -14 Snow,Blowing Snow
11:00 Legend Double Dagger -4.4 -6.4 86 6 42 16.1 99.69   -13 Snow,Blowing Snow
12:00 Legend Double Dagger -3.8 -5.8 86 7 37 6.4 99.73   -12 Snow,Blowing Snow
13:00 Legend Double Dagger -3.5 -5.2 88 7 33 9.7 99.81   -11 Snow,Blowing Snow
14:00 Legend Double Dagger -3.4 -5.0 88 8 30 12.9 99.87   -11 Snow
15:00 Legend Double Dagger -2.8 -4.4 89 11 26 9.7 99.94   -10 Snow
16:00 Legend Double Dagger -3.2 -4.8 88 11 26 16.1 99.98   -10 Snow
17:00 Legend Double Dagger -3.0 -4.7 88 11 27 16.1 100.04   -10 LegendNANA
18:00 Legend Double Dagger -3.8 -5.5 88 10 32 24.1 100.06   -12 Cloudy
19:00 Legend Double Dagger -4.2 -6.0 87 10 35 24.1 100.10   -13 LegendNANA
20:00 Legend Double Dagger -4.6 -6.7 86 10 32 24.1 100.13   -13 LegendNANA
21:00 Legend Double Dagger -5.1 -7.0 87 10 26 24.1 100.15   -13 Mainly Clear
22:00 Legend Double Dagger -5.1 -7.4 84 10 26 24.1 100.15   -13 LegendNANA
23:00 Legend Double Dagger -5.9 -8.3 83 9 25 24.1 100.16   -13 LegendNANA

Notes on Data Quality.

Legend

  • E = Estimated
  • M = Missing
  • NA = Not Available
  • ‡ = Partner data that is not subject to review by the National Climate Archives
Date modified: